| time (UTC) | temp F | wind direction | speed knots | gust knots | rain 1hr in | rain 24hr in | rain mn in | humidity % | barometer mb |
| 20260903181606 | 74 | 347 | 2.6 | 6.1 | 0.00 | 0.00 | 0.00 | 61 | 1023.8 |
| 20260903180105 | 75 | 17 | 3.5 | 6.1 | 0.00 | 0.00 | 0.00 | 61 | 1023.7 |
| 20260903174558 | 76 | 334 | 2.6 | 7.0 | 0.00 | 0.40 | 0.00 | 60 | 1023.5 |
| 20260903173103 | 76 | 331 | 3.5 | 4.3 | 0.00 | 0.40 | 0.00 | 58 | 1023.3 |
| 20260903171608 | 77 | 39 | 1.7 | 6.1 | 0.00 | 0.40 | 0.00 | 56 | 1023.2 |
| 20260903164614 | 79 | 267 | 0.9 | 3.5 | 0.00 | 0.40 | 0.00 | 52 | 1023.2 |
| 20260903163059 | 81 | 13 | 0.9 | 3.5 | 0.00 | 0.40 | 0.00 | 49 | 1023.1 |
| 20260903161603 | 83 | 9 | 0.9 | 2.6 | 0.00 | 0.40 | 0.00 | 47 | 1022.9 |
| 20260903160127 | 85 | 15 | 1.7 | 3.5 | 0.00 | 0.40 | 0.00 | 42 | 1022.9 |
| 20260903154606 | 87 | 355 | 0.9 | 3.5 | 0.00 | 0.40 | 0.00 | 38 | 1023.2 |
| 20260903153054 | 87 | 9 | 0.9 | 3.5 | 0.00 | 0.40 | 0.00 | 37 | 1023.3 |
| 20260903151602 | 87 | 343 | 1.7 | 5.2 | 0.00 | 0.40 | 0.00 | 41 | 1023.3 |
| 20260903150111 | 87 | 0 | 0.0 | 7.0 | 0.00 | 0.40 | 0.00 | 40 | 1023.3 |
| 20260903144606 | 87 | 338 | 0.9 | 4.3 | 0.00 | 0.40 | 0.00 | 40 | 1023.4 |
| 20260903143111 | 87 | 340 | 0.9 | 4.3 | 0.00 | 0.40 | 0.00 | 39 | 1023.2 |
| 20260903141613 | 87 | 19 | 1.7 | 8.7 | 0.00 | 0.40 | 0.00 | 38 | 1023.3 |
| 20260903140109 | 88 | 346 | 0.9 | 4.3 | 0.00 | 0.40 | 0.00 | 35 | 1023.4 |
| 20260903134558 | 88 | 315 | 0.9 | 7.0 | 0.00 | 0.40 | 0.00 | 39 | 1023.1 |
| 20260903133053 | 88 | 341 | 4.3 | 10.4 | 0.00 | 0.40 | 0.00 | 42 | 1023.3 |
| 20260903131603 | 88 | 0 | 2.6 | 7.8 | 0.00 | 0.40 | 0.00 | 42 | 1023.4 |
| 20260903130057 | 87 | 46 | 1.7 | 4.3 | 0.00 | 0.40 | 0.00 | 42 | 1023.5 |
| 20260903124555 | 87 | 110 | 1.7 | 7.0 | 0.00 | 0.40 | 0.00 | 44 | 1023.7 |
| 20260903123052 | 86 | 0 | 1.7 | 6.1 | 0.00 | 0.40 | 0.00 | 45 | 1023.6 |
| 20260903121558 | 85 | 0 | 1.7 | 7.8 | 0.00 | 0.40 | 0.00 | 48 | 1023.7 |
| 20260903120104 | 85 | 185 | 2.6 | 5.2 | 0.00 | 0.40 | 0.00 | 48 | 1023.8 |
| 20260903114606 | 85 | 150 | 1.7 | 6.1 | 0.00 | 0.40 | 0.00 | 47 | 1023.6 |
| 20260903113101 | 86 | 209 | 3.5 | 7.0 | 0.00 | 0.40 | 0.00 | 48 | 1023.7 |
| 20260903111554 | 85 | 103 | 0.0 | 5.2 | 0.00 | 0.40 | 0.00 | 49 | 1023.9 |
| 20260903104607 | 84 | 74 | 1.7 | 8.7 | 0.00 | 0.40 | 0.00 | 52 | 1024.2 |
| 20260903103104 | 83 | 114 | 2.6 | 7.8 | 0.00 | 0.40 | 0.00 | 53 | 1024.4 |
| 20260903101610 | 83 | 85 | 3.5 | 7.8 | 0.00 | 0.40 | 0.00 | 54 | 1024.6 |
| 20260903100103 | 83 | 191 | 1.7 | 6.1 | 0.00 | 0.40 | 0.00 | 55 | 1024.8 |
| 20260903094554 | 82 | 180 | 1.7 | 5.2 | 0.00 | 0.40 | 0.00 | 56 | 1024.8 |
| 20260903093112 | 82 | 148 | 0.9 | 6.1 | 0.00 | 0.40 | 0.00 | 57 | 1024.8 |
| 20260903091601 | 81 | 128 | 1.7 | 6.1 | 0.00 | 0.40 | 0.00 | 58 | 1024.9 |
| 20260903090105 | 80 | 117 | 0.9 | 4.3 | 0.00 | 0.40 | 0.00 | 58 | 1024.8 |
| 20260903084611 | 80 | 0 | 0.9 | 3.5 | 0.00 | 0.40 | 0.00 | 60 | 1024.8 |
| 20260903083059 | 79 | 136 | 0.9 | 4.3 | 0.00 | 0.40 | 0.00 | 61 | 1024.7 |
| 20260903081559 | 79 | 115 | 0.0 | 2.6 | 0.00 | 0.40 | 0.00 | 62 | 1024.6 |
| 20260903080055 | 78 | 124 | 0.9 | 3.5 | 0.00 | 0.40 | 0.00 | 64 | 1024.5 |
| 20260903074552 | 76 | 94 | 0.0 | 0.9 | 0.00 | 0.40 | 0.00 | 65 | 1024.4 |
| 20260903073100 | 75 | 0 | 0.0 | 1.7 | 0.00 | 0.40 | 0.00 | 71 | 1024.3 |
| 20260903071602 | 74 | 0 | 0.0 | 1.7 | 0.00 | 0.40 | 0.00 | 72 | 1024.3 |
| 20260903070100 | 73 | 0 | 0.0 | 1.7 | 0.00 | 0.40 | 0.00 | 75 | 1024.2 |
| 20260903064600 | 71 | 0 | 0.0 | 1.7 | 0.00 | 0.40 | 0.00 | 78 | 1024.2 |
| 20260903063126 | 70 | 0 | 0.0 | 0.0 | 0.00 | 0.40 | 0.00 | 79 | 1024.2 |
| 20260903061559 | 69 | 0 | 0.0 | 0.9 | 0.00 | 0.40 | 0.00 | 79 | 1024.1 |
| 20260903060115 | 69 | 0 | 0.0 | 0.0 | 0.00 | 0.40 | 0.00 | 80 | 1024.0 |
| 20260903054554 | 69 | 0 | 0.0 | 2.6 | 0.00 | 0.40 | 0.00 | 79 | 1023.9 |
| 20260903053053 | 68 | 338 | 1.7 | 3.5 | 0.00 | 0.40 | 0.00 | 77 | 1023.8 |
| 20260903051552 | 68 | 355 | 0.0 | 3.5 | 0.00 | 0.40 | 0.00 | 76 | 1023.8 |
| 20260903050128 | 67 | 327 | 1.7 | 5.2 | 0.00 | 0.40 | 0.00 | 78 | 1023.5 |
| 20260903044555 | 67 | 9 | 2.6 | 5.2 | 0.00 | 0.40 | 0.00 | 79 | 1023.3 |
| 20260903043054 | 67 | 329 | 0.9 | 5.2 | 0.00 | 0.40 | 0.00 | 79 | 1023.2 |
| 20260903041554 | 67 | 355 | 1.7 | 3.5 | 0.00 | 0.40 | 0.00 | 79 | 1023.1 |
| 20260903040105 | 66 | 21 | 0.0 | 2.6 | 0.00 | 0.40 | 0.00 | 79 | 1023.1 |
| 20260903034557 | 66 | 331 | 0.9 | 2.6 | 0.00 | 0.40 | 0.00 | 79 | 1023.2 |
| 20260903033101 | 66 | 0 | 0.0 | 2.6 | 0.00 | 0.40 | 0.00 | 79 | 1023.2 |
| 20260903031602 | 67 | 42 | 1.7 | 4.3 | 0.00 | 0.40 | 0.00 | 79 | 1023.3 |
| 20260903030105 | 66 | 304 | 1.7 | 3.5 | 0.00 | 0.40 | 0.00 | 80 | 1023.4 |
| 20260903024608 | 66 | 331 | 0.9 | 3.5 | 0.00 | 0.40 | 0.00 | 80 | 1023.4 |
| 20260903023102 | 67 | 0 | 0.0 | 0.9 | 0.00 | 0.40 | 0.00 | 79 | 1023.5 |
| 20260903021602 | 66 | 0 | 0.0 | 1.7 | 0.00 | 0.40 | 0.00 | 79 | 1023.6 |
| 20260903014558 | 67 | 0 | 0.0 | 2.6 | 0.00 | 0.40 | 0.00 | 80 | 1023.5 |
| 20260903013054 | 67 | 290 | 1.7 | 3.5 | 0.00 | 0.40 | 0.00 | 79 | 1023.6 |
| 20260903011604 | 67 | 343 | 0.9 | 3.5 | 0.00 | 0.40 | 0.00 | 78 | 1023.5 |
| 20260903010100 | 67 | 0 | 0.0 | 0.9 | 0.00 | 0.40 | 0.00 | 78 | 1023.4 |
| 20260903004600 | 67 | 0 | 0.0 | 1.7 | 0.00 | 0.40 | 0.00 | 79 | 1023.5 |
| 20260903003055 | 67 | 328 | 0.0 | 3.5 | 0.00 | 0.40 | 0.00 | 80 | 1023.4 |
| 20260903001601 | 67 | 5 | 1.7 | 4.3 | 0.00 | 0.40 | 0.00 | 80 | 1023.3 |
| 20260903000107 | 67 | 298 | 0.0 | 3.5 | 0.00 | 0.40 | 0.00 | 79 | 1023.4 |
| 20260902234559 | 67 | 0 | 0.0 | 0.9 | 0.00 | 0.40 | 0.00 | 79 | 1023.4 |
| 20260902233059 | 67 | 0 | 0.9 | 4.3 | 0.00 | 0.40 | 0.00 | 80 | 1023.5 |
| 20260902231604 | 67 | 336 | 1.7 | 3.5 | 0.00 | 0.40 | 0.00 | 81 | 1023.5 |
| 20260902224602 | 67 | 0 | 0.0 | 3.5 | 0.00 | 0.40 | 0.00 | 82 | 1023.5 |
| 20260902223107 | 67 | 0 | 1.7 | 4.3 | 0.00 | 0.40 | 0.00 | 83 | 1023.4 |
| 20260902221600 | 67 | 0 | 0.0 | 1.7 | 0.00 | 0.40 | 0.00 | 84 | 1023.3 |
| 20260902214602 | 67 | 5 | 0.0 | 3.5 | 0.00 | 0.40 | 0.40 | 83 | 1023.2 |
| 20260902213059 | 67 | 56 | 1.7 | 4.3 | 0.00 | 0.40 | 0.40 | 83 | 1023.2 |
| 20260902211556 | 67 | 342 | 1.7 | 4.3 | 0.00 | 0.40 | 0.40 | 82 | 1023.3 |
| 20260902204601 | 67 | 340 | 2.6 | 5.2 | 0.00 | 0.40 | 0.40 | 82 | 1022.9 |
| 20260902203057 | 67 | 342 | 1.7 | 5.2 | 0.00 | 0.40 | 0.40 | 83 | 1022.9 |
| 20260902201600 | 67 | 28 | 3.5 | 7.0 | 0.00 | 0.40 | 0.40 | 84 | 1022.9 |
| 20260902194559 | 67 | 344 | 3.5 | 7.0 | 0.00 | 0.40 | 0.40 | 85 | 1022.8 |
| 20260902193101 | 67 | 338 | 3.5 | 7.0 | 0.00 | 0.40 | 0.40 | 86 | 1022.8 |
| 20260902191559 | 66 | 323 | 2.6 | 4.3 | 0.00 | 0.40 | 0.40 | 88 | 1022.7 |
| 20260902190056 | 66 | 323 | 1.7 | 4.3 | 0.00 | 0.39 | 0.39 | 88 | 1022.6 |
| 20260902184559 | 66 | 347 | 0.0 | 4.3 | 0.00 | 0.39 | 0.39 | 89 | 1022.5 |
| 20260902183059 | 65 | 343 | 2.6 | 5.2 | 0.08 | 0.39 | 0.39 | 88 | 1022.6 |